NOAA-16
1 26536U 00055A 11006.30067930 -.00000252 00000-0 -11107-3 0 1400
2 26536 099.1569 033.4269 0011133 125.0892 235.1326 14.12591092530505
NOAA-17
1 27453U 02032A 11006.31471222 .00000098 00000-0 60567-4 0 1355
2 27453 098.4039 053.2812 0010745 262.9894 097.0094 14.24224986443613
NOAA-18
1 28654U 05018A 11006.26209639 .00000454 00000-0 27499-3 0 6202
2 28654 098.9768 317.1907 0014073 198.4678 161.6002 14.11426506290085
NOAA-19
1 33591U 09005A 11006.29456839 -.00000026 00000-0 95594-5 0 8152
2 33591 098.8124 309.3091 0014993 075.1702 285.1137 14.11118194 98553
HUBBLE
1 20580U 90037B 11004.24385423 .00000555 00000-0 29520-4 0 6962
2 20580 028.4705 007.1641 0003638 177.7199 182.3474 15.01131757934997
ISS
1 25544U 98067A 11007.07083667 .00012324 00000-0 94461-4 0 5936
2 25544 051.6474 266.8629 0005221 110.9511 032.4565 15.72554949695541
CO-58
1 28895U 05043F 11006.19307638 .00000209 00000-0 52958-4 0 7698
2 28895 097.9896 248.6218 0018110 012.5354 347.6279 14.59990489276601
FALCON
1 30776U 07006E 11006.89934066 .00000869 00000-0 64538-4 0 9947
2 30776 035.4335 247.1817 0000229 227.1830 132.8867 15.04050258210743
MAST
1 31126U 07012K 11005.59503955 .00000070 00000-0 26343-4 0 00531
2 31126 097.9146 041.8698 0093967 317.2723 042.1194 14.53660989197465
CAPE1
1 31130U 07012P 11005.63450173 .00000335 00000-0 87906-4 0 00743
2 31130 097.9178 038.9350 0101728 326.6647 032.8164 14.52276071197042
COMPASS
1 32787U 08021E 11006.73618486 .00000336 00000-0 48837-4 0 8758
2 32787 097.8701 073.4341 0015658 346.4930 013.5867 14.82100729145641
AAUSAT2
1 32788U 08021F 11005.70605469 .00000600 00000-0 81625-4 0 08668
2 32788 097.8710 072.5974 0015057 351.6944 008.3974 14.82261312145502
DO-64
1 32789U 08021G 11005.68743760 .00001174 00000-0 15244-3 0 08810
2 32789 097.8797 073.3126 0015194 349.0493 011.0398 14.82530770145506
CO-66
1 32791U 08021J 11006.79007790 -.00000159 00000-0 -13367-4 0 8664
2 32791 097.8712 073.4690 0015741 345.2512 014.8226 14.81846708145603
RS-30
1 32953U 08025A 11006.76705946 .00000010 00000-0 00000 0 0 3656
2 32953 082.5019 263.0831 0019756 020.5859 339.6010 12.43010126119035
TACSAT-3
1 35001U 09028A 11005.57070625 .00006782 00000-0 14763-3 0 04887
2 35001 040.4547 076.3355 0021588 077.8547 282.4686 15.44301578091909
PHARMSAT
1 35002U 09028B 11005.60098602 .00005983 00000-0 12956-3 0 4409
2 35002 040.4692 073.6660 0023578 082.4320 277.9174 15.44561913 91937
HAWKSAT1
1 35003U 09028C 11006.48667854 .00017174 00000-0 29163-3 0 4805
2 35003 040.4572 054.8524 0022332 114.9470 245.3671 15.50732267 92222
CP6
1 35004U 09028D 11006.50115917 .00020444 00000-0 32150-3 0 4823
2 35004 040.4587 051.3626 0021756 121.5889 238.7052 15.52801392 92251
AEROCUB3
1 35005U 09028E 11006.09222617 .14049365 73043-5 82692-3 0 6103
2 35005 040.4461 021.7975 0025578 084.1677 280.7191 16.39196088 92544
METEOR-M
1 35865U 09049A 11006.64893187 .00000176 00000-0 10000-3 0 9889
2 35865 098.7319 063.6946 0002930 123.2974 236.8454 14.21833934 67634
RS-38
1 35869U 09049E 11006.66818595 .00000177 00000-0 10000-3 0 01
2 35869 098.7293 063.7533 0005117 130.5111 229.6489 14.21997411 67646
